Regional Weather Roundup
Issued by NWS State College, PA

Home | Current Version | Previous Version | Text Only | Print | Product List | Glossary On
Versions: 1 2 3 4 5 6 7 8 9 10 11 12 13 14 15 16 17 18 19 20 21 22 23 24 25 26 27 28 29 30 31 32 33 34 35 36 37 38 39 40 41 42 43 44 45 46 47 48 49 50
000
ASUS41 KCTP 290910
RWRCTP

REGIONAL WEATHER ROUNDUP
NATIONAL WEATHER SERVICE STATE COLLEGE PA
500 AM EDT SAT AUG 29 2015

Note: "fair" indicates few or no clouds below 12,000 feet with no
significant weather and/or obstructions to visibility.

* = STATION THAT DOES NOT REPORT PRECIPITATION /E.G. RAIN...SNOW...ETC/
    THUNDER OR FOG.

PAZ002>004-007>009-013>016-020>023-029>032-291000-
WESTERN PENNSYLVANIA

CITY           SKY/WX    TMP DP  RH WIND       PRES   REMARKS
ERIE           CLEAR     60  54  80 CALM      30.15S
MEADVILLE      PTCLDY    58  52  80 CALM      30.17S
FRANKLIN*      PTCLDY    52  48  87 E5        30.19S
NEW CASTLE     FAIR      52  52 100 CALM      30.17S FOG
BEAVER COUNTY  NOT AVBL
BUTLER*        CLEAR     52  50  93 CALM      30.18S
PITTSBURGH INT PTCLDY    56  52  86 CALM      30.15F
PITTSBURGH     CLEAR     58  52  80 SE3       30.15F
INDIANA*       CLOUDY    55  54  94 CALM      30.21S
LATROBE        NOT AVBL
WASHINGTON CO*   N/A     48  46  93 CALM      30.17S VSB 1/4
$$

PAZ004>006-010>012-017>019-024>028-033>037-041-042-045-046-049>053-291000-
CENTRAL PENNSYLVANIA

CITY           SKY/WX    TMP DP  RH WIND       PRES   REMARKS
BRADFORD       PTCLDY    48  46  93 CALM      30.20S FOG
DUBOIS         CLEAR     57  52  83 E5        30.18F
CLEARFIELD     CLEAR     51  49  92 N3        30.20F
JOHNSTOWN      PTCLDY    60  55  83 SW6       30.21F
ALTOONA        CLEAR     52  49  89 CALM      30.20S FOG
STATE COLLEGE  FOG       54  53  98 CALM      30.20S VSB 1/2
WILLIAMSPORT   MOCLDY    56  52  86 N3        30.19S
SELINSGROVE    CLEAR     52  50  93 CALM      30.20S
FT INDIANTOWN  CLEAR     55  54  97 CALM      30.20S
CAPITAL CITY   CLEAR     61  58  90 CALM      30.19S
HARRISBURG     PTCLDY    61  57  87 E5        30.18F
YORK           CLEAR     55  53  93 CALM      30.19F
$$

PAZ038>040-043-044-047-048-054-055-060>062-067>071-291000-
EASTERN PENNSYLVANIA

CITY           SKY/WX    TMP DP  RH WIND       PRES   REMARKS
SCRANTON       CLEAR     56  50  80 E5        30.21S
MOUNT POCONO   CLEAR     48  45  89 CALM      30.23S
ALLENTOWN      CLEAR     54  52  93 CALM      30.20S
QUAKERTOWN*    SUNNY     54  52  94 CALM      30.21S
READING        CLEAR     58  55  90 CALM      30.19S
LANCASTER      CLEAR     56  55  97 CALM      30.20S FOG
COATESVILLE    SUNNY     61  57  88 CALM      30.21S
POTTSTOWN      CLEAR     55  54  96 CALM      30.22R
BLUE BELL      CLEAR     54  54 100 CALM      30.20R
DOYLESTOWN     CLEAR     55  54  96 CALM      30.20R
WILLOW GROVE   NOT AVBL
NORTH PHILA    CLEAR     61  54  77 W3        30.21S
PHILADELPHIA   CLEAR     67  58  72 NW6       30.20S
$$


USA.gov is the U.S. government's official web portal to all federal, state and local government web resources and services.